Location: Bacea
(45.9500°N, 22.6667°E)
Time: 00:04:23
(UTC+00:00)

Cosmos 1300 - Pass Details

Date: 16 October 2021
Orbit: 509 x 512 km, 82.5° (Epoch: 05 December)

Event Time Altitude Azimuth Distance (km) Brightness Sun altitude
Rises 16:54:23 0° 159° (SSE) 2,613 6.1 -13.4°
Reaches altitude 10° 16:56:45 10° 146° (SE) 1,733 5.0 -13.8°
Enters shadow 16:58:04 18° 130° (SE) 1,327 4.3 -14.1°
Exits shadow 17:02:54 11° 35° (NE) 1,692 5.0 -14.9°
Drops below altitude 10° 17:03:03 10° 34° (NE) 1,746 5.1 -14.9°
Sets 17:05:26 0° 21° (NNE) 2,637 6.1 -15.3°
